Temp
62 62 61 61 60 60 60 60 60 60 60 61 61 61 62 62 62 60 64 75 72 73 74 72 72 70 67 64 64 59 53 49 49 54 56 63 61 67 70 66 68 69 69 71 74
61 61 61 61 61 60 60 60 60 60 60 61 61 61 61 61 61 65 77 74 73 75 73 71 68 69 63 61 62 58 51 54 59 60 60 62 64 65 65 64 64 66 72 73 73
61 61 61 61 61 60 60 60 60 60 60 60 61 61 61 60 63 68 77 73 74 76 73 70 68 65 60 59 58 54 56 58 62 66 66 65 64 65 64 58 63 64 67 70 69
60 61 61 60 61 60 60 60 60 60 60 60 60 61 61 62 55 71 76 74 74 76 71 68 65 59 56 56 60 55 61 64 65 68 66 66 68 65 65 65 71 72 71 68 66
60 60 60 60 60 60 60 60 60 60 60 60 60 61 62 62 67 75 76 75 74 72 69 66 64 59 55 58 59 56 62 63 67 65 64 68 64 64 61 69 70 69 69 66 65
59 59 60 60 60 60 60 59 58 58 59 60 61 62 63 58 75 77 76 75 74 69 69 65 64 64 61 58 58 61 62 62 65 64 64 64 61 65 65 68 67 67 65 65 65
59 59 59 59 60 60 60 59 58 58 60 61 62 65 62 69 75 75 77 71 74 74 70 71 71 67 63 59 62 62 58 62 61 64 60 67 60 59 67 67 65 65 65 65 65
58 58 58 59 59 60 60 59 58 59 61 63 64 62 63 75 73 72 71 74 76 75 73 74 71 66 61 62 63 58 55 51 58 65 62 64 54 64 65 66 63 64 65 65 64
58 58 58 59 59 59 59 58 59 61 63 64 60 59 64 76 75 79 77 76 74 75 74 83 70 61 63 56 52 53 48 49 57 64 64 61 56 63 64 64 62 62 63 65 64
58 57 57 58 58 58 57 59 62 62 63 67 70 60 68 70 77 79 74 76 74 73 70 68 60 56 53 52 46 49 49 49 51 57 58 57 56 59 62 64 63 61 62 63 63
58 57 57 57 57 58 55 61 63 61 61 63 65 66 72 78 79 75 79 76 73 69 57 61 56 51 54 56 56 56 53 51 55 60 57 54 55 59 60 58 59 59 60 60 62
57 57 57 57 57 57 54 63 64 61 55 68 68 69 75 76 70 74 79 68 65 58 59 56 52 60 62 61 58 56 52 50 56 60 57 54 54 56 58 59 60 60 59 60 62
56 56 57 56 57 56 56 65 66 62 54 64 67 67 70 74 69 70 76 68 62 57 55 53 58 64 64 59 58 52 52 51 52 56 56 53 51 52 56 56 59 60 62 62 62
56 56 56 55 58 52 59 65 62 62 50 58 64 70 71 72 67 76 78 71 61 58 58 54 63 63 59 59 58 49 58 57 55 51 45 51 41 47 50 53 54 56 58 60 63
55 56 56 55 49 51 64 60 61 64 38 64 65 75 69 70 69 69 75 70 61 60 59 56 57 58 57 59 60 55 59 54 53 46 43 45 41 46 49 49 50 55 58 60 62
55 56 55 51 45 52 57 57 62 49 39 59 67 64 64 67 67 69 70 71 67 59 57 58 62 62 62 62 60 61 55 49 45 42 36 42 42 42 45 50 52 56 58 61 62
55 55 52 55 51 53 55 59 47 39 60 58 59 61 60 61 63 64 62 58 55 48 47 54 55 60 63 57 56 53 45 34 35 33 35 44 41 45 52 56 58 58 59 60 61
53 52 51 53 49 54 55 53 38 51 53 63 63 60 59 61 60 60 58 54 56 54 47 47 46 58 62 58 53 48 47 33 28 28 36 44 38 46 55 58 60 61 60 60 58
51 46 48 53 53 52 53 41 44 50 59 58 60 54 53 59 58 56 55 54 58 58 51 46 49 59 62 60 59 49 45 47 37 35 33 38 45 53 54 55 57 57 58 57 58
42 42 51 57 56 53 50 44 50 59 62 60 50 55 48 53 53 52 53 60 59 61 57 54 45 56 59 60 57 53 55 43 38 32 31 36 39 41 49 53 55 55 54 57 56
43 47 58 57 56 52 43 46 55 64 64 56 52 52 52 52 53 50 55 60 61 57 58 52 49 49 54 52 51 49 45 43 42 36 28 26 37 48 52 54 54 54 55 55 54
40 44 57 57 49 43 44 50 56 61 64 61 57 55 54 54 52 53 54 59 63 60 55 52 46 43 49 53 56 52 50 46 36 37 31 30 36 52 52 52 52 53 55 54 53
37 38 53 55 42 41 47 53 57 58 59 59 56 58 56 52 49 54 57 62 62 60 56 54 42 38 44 48 51 48 49 46 41 38 34 31 38 54 53 51 53 52 53 53 53
39 38 45 47 45 42 42 47 50 59 58 58 56 57 52 50 53 53 56 59 60 59 59 57 44 44 38 46 48 46 50 49 44 35 36 37 43 49 50 50 51 51 52 52 52
39 38 40 36 41 41 42 47 50 47 53 54 52 54 50 45 46 48 55 57 58 59 53 53 46 47 48 52 52 50 50 49 45 44 40 44 44 48 48 50 50 52 53 53 51
37 37 39 37 40 41 42 41 45 47 47 48 47 50 52 46 48 46 49 50 53 53 49 48 42 46 46 52 52 49 51 50 49 48 46 46 45 48 49 52 52 53 53 51 50
38 39 39 38 37 37 38 41 45 47 50 53 49 46 49 52 55 54 54 53 52 49 49 49 45 43 40 49 48 41 49 50 48 48 47 43 47 50 49 51 51 51 51 49 48
MSLP
1016.82 1016.32 1015.86 1015.44 1015.05 1014.69 1014.34 1013.98 1013.69 1013.43 1013.07 1012.74 1012.42 1012.17 1011.96 1011.67 1011.16 1011.19 1010.33 1009.12 1009.12 1009.18 1009.26 1009.41 1009.50 1009.67 1009.81 1010.27 1010.62 1011.22 1012.40 1013.06 1012.26 1011.93 1012.14 1011.83 1012.04 1012.88 1013.08 1013.23 1013.61 1013.53 1013.82 1014.49 1014.70
1016.92 1016.45 1015.97 1015.46 1014.95 1014.49 1014.13 1013.82 1013.47 1013.18 1012.86 1012.53 1012.28 1012.00 1011.79 1011.54 1011.07 1010.24 1008.77 1008.77 1008.97 1009.06 1009.25 1009.47 1009.61 1009.64 1010.22 1010.48 1010.75 1011.28 1012.28 1012.03 1011.36 1011.22 1011.86 1012.20 1012.27 1012.92 1013.74 1014.06 1014.75 1014.43 1014.46 1014.54 1014.60
1017.02 1016.48 1016.00 1015.53 1014.94 1014.43 1014.00 1013.64 1013.32 1012.99 1012.66 1012.41 1012.19 1011.93 1011.61 1011.42 1010.78 1009.16 1008.36 1008.74 1009.00 1009.05 1009.32 1009.53 1009.63 1009.74 1010.20 1010.44 1010.75 1011.08 1011.42 1011.33 1011.02 1010.89 1011.50 1012.12 1012.75 1012.96 1013.68 1014.57 1014.16 1014.31 1014.62 1014.93 1015.04
1017.27 1016.65 1016.03 1015.42 1014.91 1014.39 1013.89 1013.50 1013.12 1012.77 1012.56 1012.34 1012.12 1011.81 1011.42 1011.14 1010.26 1008.65 1008.42 1008.70 1008.97 1009.12 1009.41 1009.59 1009.68 1009.98 1010.41 1010.62 1010.65 1010.85 1010.69 1010.55 1010.78 1010.82 1011.60 1012.09 1012.79 1013.32 1013.39 1013.46 1013.40 1013.74 1014.38 1015.08 1015.58
1017.49 1016.80 1016.09 1015.43 1014.81 1014.27 1013.78 1013.33 1012.97 1012.62 1012.36 1012.22 1012.02 1011.74 1011.34 1010.78 1009.39 1008.34 1008.50 1008.82 1009.05 1009.25 1009.46 1009.53 1009.61 1009.98 1010.34 1010.50 1010.62 1010.77 1010.48 1010.33 1010.64 1011.13 1011.46 1012.00 1012.64 1013.11 1013.73 1013.74 1014.24 1014.68 1015.08 1015.52 1015.90
1017.51 1016.84 1016.16 1015.38 1014.73 1014.10 1013.58 1013.12 1012.75 1012.47 1012.24 1012.06 1011.89 1011.75 1011.34 1010.17 1008.25 1008.19 1008.53 1008.96 1009.19 1009.34 1009.45 1009.46 1009.47 1009.62 1010.15 1010.42 1010.52 1010.58 1010.47 1010.54 1010.73 1011.32 1011.48 1012.04 1012.84 1012.94 1014.26 1014.22 1014.90 1015.38 1015.68 1015.93 1016.10
1017.50 1016.86 1016.17 1015.34 1014.58 1013.96 1013.37 1012.85 1012.47 1012.24 1012.12 1012.02 1011.85 1011.72 1011.07 1009.19 1008.33 1008.33 1008.46 1008.72 1008.96 1009.16 1009.19 1009.13 1009.18 1009.53 1010.04 1010.29 1010.43 1010.52 1010.84 1010.88 1010.95 1011.29 1011.90 1012.15 1013.46 1013.39 1013.84 1014.63 1015.30 1015.77 1016.10 1016.39 1016.46
1017.63 1016.82 1016.10 1015.31 1014.39 1013.54 1012.94 1012.41 1012.07 1012.03 1011.98 1011.98 1011.90 1011.63 1010.39 1008.36 1008.35 1008.40 1008.44 1008.51 1008.68 1008.91 1009.05 1008.93 1009.08 1009.52 1010.06 1010.41 1010.74 1011.11 1011.35 1011.63 1011.16 1011.24 1011.88 1011.87 1013.03 1013.10 1013.78 1014.62 1015.42 1015.94 1016.19 1016.36 1016.36
1017.84 1017.07 1016.25 1015.30 1014.30 1013.35 1012.47 1011.80 1011.50 1011.79 1011.94 1012.02 1012.11 1011.44 1009.70 1008.18 1008.17 1007.79 1008.10 1008.42 1008.42 1008.57 1008.72 1008.87 1009.26 1010.34 1010.66 1011.23 1011.82 1011.99 1011.87 1011.77 1011.34 1011.15 1011.46 1012.19 1012.62 1012.82 1013.65 1014.55 1015.45 1015.79 1016.06 1016.29 1016.30
1017.99 1017.19 1016.33 1015.37 1014.34 1013.39 1012.34 1011.78 1011.57 1011.78 1012.14 1012.00 1011.81 1011.50 1009.33 1008.23 1007.61 1007.57 1007.94 1008.26 1008.48 1008.62 1009.14 1009.46 1010.42 1011.06 1011.68 1011.82 1012.23 1012.11 1011.78 1011.58 1011.37 1011.34 1011.60 1012.01 1012.37 1013.00 1013.61 1014.30 1014.76 1015.42 1015.82 1016.14 1016.17
1018.04 1017.27 1016.38 1015.32 1014.36 1013.48 1012.40 1012.04 1012.43 1012.20 1011.92 1011.30 1010.73 1010.12 1008.83 1007.79 1007.34 1007.47 1007.63 1008.20 1008.44 1008.98 1009.73 1010.24 1011.07 1011.35 1011.32 1011.33 1011.34 1011.49 1011.56 1011.49 1011.24 1011.22 1011.60 1012.04 1012.40 1013.09 1013.83 1014.63 1015.15 1015.67 1015.94 1016.14 1016.00
1018.10 1017.36 1016.45 1015.25 1014.08 1013.30 1012.94 1012.98 1013.27 1013.63 1012.38 1010.20 1009.66 1009.28 1008.43 1007.94 1007.92 1007.52 1007.44 1008.20 1008.65 1009.45 1010.02 1010.75 1010.90 1010.42 1010.60 1010.98 1011.20 1011.26 1011.49 1011.72 1011.61 1011.53 1011.81 1012.36 1012.79 1013.25 1013.91 1014.33 1014.58 1014.96 1015.57 1015.71 1015.74
1018.24 1017.47 1016.53 1015.28 1013.78 1013.50 1013.85 1012.90 1012.86 1013.04 1012.66 1009.55 1008.71 1008.28 1007.92 1008.09 1008.02 1007.55 1007.66 1008.11 1008.78 1009.58 1010.07 1010.38 1010.12 1009.92 1010.17 1010.71 1011.03 1011.49 1011.65 1011.92 1012.15 1012.20 1012.47 1012.91 1013.65 1013.87 1014.12 1014.38 1014.39 1014.51 1014.72 1015.21 1015.30
1018.23 1017.54 1016.84 1015.81 1013.96 1014.69 1013.59 1012.70 1012.52 1012.48 1012.18 1009.60 1008.20 1007.06 1007.26 1007.43 1007.70 1007.12 1007.19 1008.00 1008.83 1009.47 1010.05 1010.16 1009.70 1009.69 1009.96 1010.43 1010.94 1011.60 1011.75 1012.24 1012.74 1013.42 1014.04 1014.22 1014.99 1014.65 1014.74 1014.59 1014.43 1014.52 1014.57 1014.84 1014.92
1018.04 1017.25 1017.04 1016.97 1016.21 1015.01 1012.90 1012.31 1011.98 1011.90 1011.51 1008.69 1007.46 1006.53 1006.89 1007.16 1007.05 1007.09 1007.05 1007.66 1008.74 1009.48 1010.05 1010.02 1009.73 1009.64 1009.89 1010.21 1010.84 1011.77 1012.18 1013.25 1013.82 1014.67 1015.19 1015.56 1015.98 1015.05 1015.08 1014.74 1014.60 1014.58 1014.69 1014.68 1014.66
1017.78 1016.81 1016.75 1016.22 1016.31 1013.74 1012.96 1012.59 1012.03 1012.67 1010.74 1008.35 1007.27 1007.03 1007.34 1007.21 1007.30 1007.36 1007.46 1007.78 1008.88 1009.67 1010.07 1009.98 1009.66 1009.54 1009.68 1010.27 1010.95 1012.04 1013.21 1014.71 1015.71 1016.34 1016.76 1016.35 1016.53 1015.84 1015.28 1014.52 1014.48 1014.49 1014.49 1014.50 1014.48
1017.37 1016.30 1016.11 1015.88 1014.76 1013.69 1013.33 1012.86 1013.28 1012.43 1010.30 1008.78 1007.84 1007.71 1007.70 1007.79 1007.93 1007.86 1008.28 1008.81 1009.69 1010.41 1010.90 1010.50 1010.05 1009.69 1009.68 1010.63 1011.66 1012.74 1014.53 1016.38 1017.58 1018.24 1017.92 1016.88 1016.86 1015.28 1014.36 1014.02 1013.86 1014.04 1014.25 1014.30 1014.28
1016.98 1015.64 1015.36 1014.82 1014.05 1013.91 1013.69 1013.62 1013.26 1011.72 1010.62 1009.25 1008.34 1008.08 1008.27 1008.18 1008.40 1008.65 1009.05 1009.63 1009.96 1010.39 1011.32 1011.07 1010.76 1010.02 1009.90 1010.47 1011.76 1013.22 1014.67 1016.64 1018.14 1019.02 1018.60 1017.50 1016.48 1014.63 1013.98 1013.58 1013.56 1013.68 1013.87 1014.08 1014.12
1016.56 1015.46 1015.12 1013.87 1013.74 1014.23 1014.08 1013.93 1012.72 1011.61 1010.56 1009.86 1009.10 1008.73 1008.62 1008.62 1008.87 1009.12 1009.44 1009.70 1009.72 1010.04 1010.72 1011.12 1010.84 1010.12 1010.02 1010.47 1011.37 1013.56 1014.92 1016.18 1018.06 1019.64 1019.41 1017.85 1016.28 1014.62 1014.02 1013.84 1013.73 1013.80 1013.97 1014.21 1014.33
1017.68 1016.72 1014.87 1013.56 1013.58 1014.01 1013.95 1013.48 1012.33 1011.20 1010.47 1010.16 1010.16 1009.81 1009.75 1009.50 1009.50 1009.65 1009.69 1009.11 1009.46 1009.53 1009.61 1010.72 1011.09 1010.66 1010.48 1010.66 1011.89 1012.55 1014.25 1016.25 1018.08 1019.72 1020.00 1018.54 1017.16 1015.67 1014.62 1014.16 1013.96 1014.10 1014.25 1014.47 1014.80
1017.80 1016.83 1014.52 1013.85 1013.79 1014.06 1014.39 1013.64 1012.17 1011.27 1010.60 1010.55 1010.76 1010.74 1010.48 1010.33 1009.87 1009.81 1009.37 1008.85 1008.75 1009.35 1009.80 1010.87 1011.35 1011.72 1011.39 1011.29 1011.90 1013.30 1014.40 1016.19 1017.75 1019.08 1019.81 1019.13 1017.41 1014.66 1014.16 1013.70 1013.84 1013.86 1014.62 1014.87 1015.54
1018.94 1017.64 1014.46 1013.90 1014.62 1015.15 1014.68 1013.85 1012.50 1011.54 1010.78 1010.69 1010.84 1011.17 1010.92 1010.76 1010.29 1009.96 1009.13 1008.58 1008.21 1008.87 1010.25 1010.78 1011.72 1012.46 1012.07 1012.00 1011.88 1012.44 1013.67 1015.27 1017.50 1019.06 1019.47 1018.86 1016.38 1014.46 1014.04 1013.92 1013.99 1014.42 1014.71 1015.32 1015.92
1020.20 1018.51 1014.88 1014.32 1015.50 1015.87 1015.01 1013.87 1012.85 1012.08 1011.53 1011.26 1011.41 1011.40 1011.24 1011.20 1010.92 1009.85 1008.98 1008.30 1008.35 1008.79 1009.32 1010.52 1012.00 1012.76 1012.84 1012.90 1012.41 1012.62 1013.56 1014.75 1016.26 1017.44 1018.30 1018.33 1015.99 1014.41 1014.01 1014.08 1014.34 1014.73 1015.27 1015.98 1016.70
1020.80 1019.56 1017.44 1016.41 1016.95 1016.56 1015.94 1014.79 1013.54 1012.71 1012.30 1012.28 1012.09 1011.89 1011.98 1011.48 1010.81 1010.26 1009.55 1009.01 1008.78 1008.96 1009.27 1009.91 1011.89 1012.09 1012.34 1012.11 1012.03 1012.72 1013.23 1014.14 1015.33 1016.82 1017.25 1016.79 1015.68 1014.61 1014.49 1014.74 1014.87 1015.23 1015.87 1016.55 1017.16
1020.95 1020.50 1019.70 1018.76 1018.07 1017.65 1016.68 1015.72 1014.82 1014.05 1013.51 1013.00 1012.74 1012.80 1012.82 1012.54 1011.84 1011.09 1010.26 1009.77 1009.49 1009.52 1009.83 1010.46 1011.74 1012.20 1012.16 1011.90 1011.81 1012.24 1012.90 1013.71 1014.60 1015.26 1015.92 1015.61 1015.60 1014.81 1014.78 1015.06 1015.36 1015.64 1016.26 1016.94 1017.60
1021.38 1020.98 1020.20 1019.45 1018.81 1018.16 1017.25 1016.67 1016.02 1015.38 1014.78 1014.09 1013.99 1013.77 1013.35 1013.01 1012.72 1012.80 1012.16 1011.38 1010.50 1010.17 1010.42 1011.14 1012.10 1012.36 1012.72 1012.28 1012.03 1012.32 1012.54 1013.14 1013.89 1014.35 1014.76 1015.02 1015.08 1014.94 1015.10 1015.35 1015.75 1016.03 1016.68 1017.55 1018.33
1021.54 1021.11 1020.64 1020.17 1019.28 1018.87 1018.08 1017.66 1016.90 1016.40 1015.11 1014.54 1014.68 1014.44 1013.53 1013.04 1012.82 1012.62 1012.53 1012.36 1012.13 1011.90 1011.26 1011.37 1012.08 1012.80 1013.16 1012.83 1012.78 1012.80 1012.06 1012.36 1013.12 1013.56 1014.10 1014.74 1014.51 1015.08 1015.68 1015.96 1016.35 1016.78 1017.42 1018.50 1019.31
Wind_Speed
20 20 18 17 16 15 14 13 11 11 10 11 11 11 12 12 10 2 4 7 3 6 2 2 2 3 3 3 3 4 7 2 1 3 2 5 6 5 6 6 6 5 3 8 7
20 19 18 18 17 16 15 13 12 11 11 11 11 12 11 11 2 3 6 8 7 6 3 4 4 4 4 2 3 6 5 6 3 3 6 5 5 7 5 5 6 10 9 6 5
21 20 20 19 18 17 15 14 12 11 11 11 11 11 10 7 3 3 2 9 7 4 3 2 2 2 4 3 2 1 4 4 1 5 7 8 5 4 14 3 5 19 13 6 7
21 21 21 20 19 18 16 15 13 12 10 10 11 11 11 2 1 1 8 11 7 6 2 1 2 4 4 3 1 2 3 4 5 7 7 9 12 7 4 9 15 18 15 8 9
21 22 21 21 20 19 17 15 14 12 11 9 9 9 3 3 7 1 11 10 5 3 1 1 4 2 3 1 2 3 3 3 5 7 6 7 4 5 3 7 7 7 7 9 8
22 22 23 22 21 21 18 15 13 11 10 8 6 8 2 1 1 2 9 6 4 3 1 2 2 3 4 1 3 1 2 1 5 6 5 9 3 4 3 7 7 7 6 5 7
23 23 24 24 24 21 20 16 12 10 8 7 4 2 2 9 3 4 7 4 4 4 1 3 3 3 4 2 2 1 4 5 1 6 4 9 5 3 9 10 10 8 6 6 8
24 24 25 26 26 25 23 17 12 9 4 5 3 1 6 3 2 1 2 3 4 4 2 3 3 4 2 0 7 4 6 3 4 6 5 5 7 6 11 16 13 10 9 9 8
24 25 26 27 28 28 26 17 5 2 2 3 0 1 7 4 2 4 5 4 1 4 2 2 4 3 5 5 5 7 3 2 5 7 6 4 6 5 8 10 9 9 8 7 6
24 25 26 27 27 28 26 3 8 7 1 2 2 2 4 2 3 4 2 3 2 4 4 5 6 4 4 5 5 4 2 2 3 1 2 6 4 6 10 12 14 8 8 8 8
24 25 26 29 29 27 11 2 7 5 3 5 5 4 5 4 2 2 4 5 3 7 2 3 5 3 5 6 3 4 3 0 3 0 3 5 3 8 6 4 7 7 7 7 9
25 26 27 28 31 23 4 7 7 2 10 9 11 6 5 2 3 4 5 4 3 2 2 6 3 6 5 4 3 2 3 0 3 4 4 5 2 3 6 7 9 12 9 9 6
24 25 26 29 32 4 3 4 3 3 3 9 6 6 6 8 7 7 6 4 3 3 2 5 3 3 4 4 6 2 5 3 3 4 4 3 5 4 1 2 3 7 9 6 10
24 23 24 30 5 6 5 4 4 5 5 8 4 7 5 7 3 6 7 6 2 5 6 3 4 3 3 3 4 3 3 2 2 4 3 3 5 5 4 7 1 4 8 7 6
25 25 20 10 6 4 4 7 7 3 5 4 2 1 3 10 5 3 3 4 7 4 5 6 1 2 2 3 4 5 4 3 2 4 3 3 4 8 4 3 2 6 7 6 6
25 27 22 1 2 9 10 10 3 8 7 5 3 4 4 1 1 3 3 7 4 3 2 4 2 3 6 3 2 7 6 8 5 3 2 3 5 6 4 6 3 3 5 6 5
27 29 16 2 5 4 7 3 6 5 6 4 1 2 2 4 2 3 5 4 6 4 2 2 2 3 3 5 3 6 7 4 5 5 6 3 2 9 5 6 7 8 8 7 6
29 29 3 5 4 5 3 6 4 5 5 6 4 2 8 4 5 3 5 3 3 5 4 5 5 6 3 6 8 3 8 8 6 3 5 2 5 6 3 6 5 6 6 4 3
25 5 3 4 5 1 5 3 9 6 3 4 7 1 1 1 1 3 7 6 7 8 8 6 5 1 3 3 7 4 3 4 8 3 2 3 6 7 2 2 3 6 4 4 4
5 5 5 4 5 3 5 4 3 3 2 4 3 4 3 3 4 5 6 5 6 11 4 8 2 0 2 5 6 4 7 4 3 2 4 5 5 6 5 8 7 7 6 6 2
3 5 3 2 2 5 4 5 3 3 5 3 1 3 3 3 3 3 6 6 6 3 5 6 5 4 1 4 9 2 1 6 5 5 6 1 7 7 10 11 11 9 6 4 6
4 3 3 1 4 1 2 2 6 4 1 2 3 6 5 5 4 4 8 7 7 8 9 5 6 4 7 4 1 3 6 6 7 5 2 5 9 3 7 4 3 2 5 4 6
3 4 5 2 3 2 5 3 2 4 4 3 2 2 2 3 4 7 6 3 7 9 11 9 1 4 7 6 2 3 4 5 5 4 7 7 8 2 5 2 2 7 6 5 6
2 4 5 6 1 2 3 2 5 6 2 3 3 3 4 4 6 6 3 2 1 3 8 9 4 9 11 8 5 4 4 5 6 5 5 7 5 6 1 4 4 6 5 6 6
2 2 3 2 4 4 2 3 2 6 4 5 1 3 2 3 6 2 4 3 2 2 4 5 6 4 2 4 5 4 5 6 5 4 5 6 6 7 3 6 5 5 6 6 6
1 1 3 1 2 3 3 2 3 4 1 4 3 11 5 2 5 4 6 5 5 1 3 2 4 4 3 3 4 3 6 7 6 4 5 4 5 1 2 5 4 5 7 6 6
2 2 3 2 2 2 2 2 2 4 6 5 3 5 5 7 5 5 4 6 9 4 4 6 7 4 4 4 4 5 9 5 3 2 4 6 7 6 4 6 3 4 6 6 5
Wind_Direction
4 1 358 357 353 350 343 335 330 324 319 315 317 320 321 323 312 169 252 212 135 138 132 316 130 9 59 60 45 119 62 76 129 137 82 358 95 15 26 69 47 346 94 130 142
1 358 356 354 350 346 346 338 328 321 315 313 317 320 322 330 303 258 250 140 132 151 49 42 5 9 54 54 27 80 89 203 225 141 130 103 79 127 101 109 69 85 98 113 122
357 355 353 351 349 343 342 340 329 317 312 312 315 317 318 319 345 258 189 145 148 131 85 70 77 65 69 34 30 150 154 179 222 112 135 123 83 94 123 339 191 151 157 143 98
355 353 349 346 345 344 338 338 330 316 307 310 316 318 320 300 143 65 129 131 136 111 85 82 44 62 80 84 32 45 228 185 168 136 126 142 126 152 191 190 167 156 144 129 130
354 351 347 344 341 341 336 331 326 315 306 310 316 319 319 15 254 192 121 124 102 93 66 87 56 101 82 95 80 140 269 169 98 132 127 109 107 144 144 133 121 123 124 145 152
351 349 345 342 341 337 336 328 320 310 302 301 310 312 35 337 276 125 126 124 120 136 147 180 141 175 100 99 105 226 69 85 128 143 125 126 137 89 240 136 139 139 154 165 168
350 347 344 341 338 335 334 326 313 306 299 294 294 317 80 235 13 96 139 170 153 172 200 210 162 86 137 19 336 71 92 23 238 166 144 111 345 189 159 151 162 180 185 190 207
347 345 344 340 336 334 333 321 306 292 275 274 233 53 242 248 120 203 138 290 198 206 215 244 198 102 81 144 22 70 57 95 254 151 191 83 230 229 159 165 181 175 179 185 204
345 343 342 340 336 334 332 321 299 194 154 114 22 116 268 311 227 220 159 224 332 157 226 81 75 87 35 80 23 10 162 160 302 204 144 178 233 202 155 163 178 179 173 180 214
345 343 340 337 335 334 330 311 93 119 96 193 273 7 279 273 239 174 186 160 271 89 32 54 52 71 44 78 190 203 143 230 230 312 176 172 212 165 169 173 194 181 178 188 208
342 342 339 335 332 333 343 330 15 358 19 234 224 238 282 264 289 169 154 134 129 58 84 11 62 227 221 195 149 145 118 310 280 201 138 206 184 172 183 181 192 198 194 201 219
339 339 338 334 326 324 303 91 106 189 300 245 243 245 259 85 349 291 124 140 101 163 103 25 226 223 197 138 155 134 115 353 294 354 138 182 206 62 158 206 206 192 189 201 223
335 337 337 335 321 17 309 134 91 139 229 289 204 194 212 137 213 250 133 151 144 135 168 162 236 121 148 121 99 58 133 159 183 349 44 60 338 346 293 334 279 218 185 187 212
330 331 338 337 42 329 286 329 288 194 38 282 256 265 140 137 233 211 174 147 78 167 151 211 288 141 128 152 126 153 188 120 96 80 213 46 260 295 318 314 317 186 164 193 228
327 324 334 334 290 313 277 331 325 78 352 258 232 89 157 154 168 227 150 69 160 192 100 247 126 123 140 199 140 205 90 62 70 90 72 0 79 269 320 294 179 152 161 187 234
323 318 332 107 225 249 329 317 59 44 251 323 137 158 123 254 118 116 115 58 109 105 20 216 313 167 197 84 90 144 78 46 49 76 30 219 134 275 207 213 202 192 205 218 221
321 319 323 211 236 343 324 23 55 148 313 315 6 153 192 164 186 135 149 137 151 102 249 337 286 313 128 102 51 74 61 347 354 10 222 180 89 240 234 232 193 194 201 210 211
323 316 231 221 256 324 26 54 140 222 253 307 349 164 185 152 212 146 117 184 200 105 123 150 311 181 184 174 180 151 145 152 201 207 260 295 231 254 249 275 208 194 180 164 221
323 324 291 264 217 178 81 115 194 207 278 5 336 140 255 70 206 139 192 218 194 172 160 144 267 253 193 138 128 178 151 162 103 15 42 268 298 318 215 221 226 203 206 200 274
325 344 294 334 133 64 81 226 216 213 8 7 342 32 1 15 11 159 191 224 219 192 157 205 104 272 146 109 39 139 151 78 19 146 261 299 282 236 243 231 230 239 214 235 77
21 9 271 44 37 42 141 237 267 166 81 71 41 311 286 304 204 220 221 261 219 153 118 137 118 273 120 195 168 98 117 57 114 129 165 227 264 216 210 213 210 227 188 221 121
7 336 302 27 53 38 124 312 323 324 46 257 166 220 224 203 264 251 217 219 161 150 164 186 135 167 196 316 99 143 172 142 127 223 177 148 273 294 253 278 183 191 198 117 124
347 273 308 62 117 352 312 301 317 357 352 8 316 49 300 248 271 216 235 304 164 156 167 184 265 75 356 353 335 184 175 123 108 81 188 139 258 326 347 91 104 144 137 113 115
359 338 326 35 33 88 14 349 331 350 147 359 266 39 354 277 212 246 246 319 183 119 75 95 122 156 188 201 150 161 168 145 131 127 174 218 272 292 268 102 120 112 114 107 90
38 260 191 349 350 345 280 337 357 355 4 331 309 55 324 286 322 292 331 302 18 157 84 125 155 148 195 172 133 149 168 168 178 172 152 244 197 277 229 162 159 140 104 93 75
299 48 344 190 306 313 343 60 32 336 316 324 46 327 300 209 151 292 358 355 276 272 116 40 166 142 150 170 135 202 239 206 203 202 241 250 247 172 123 117 111 103 105 93 79
311 319 117 316 16 21 281 38 36 358 271 236 52 334 286 249 201 212 215 256 247 279 218 140 135 108 222 150 106 311 228 198 141 102 138 181 214 162 118 119 109 96 95 101 89